www.pogodaiklimat.ru
ПОГОДА в Килписйарви
Время
(UTC), дата
04 14.11
05 14.11
06 14.11
07 14.11
08 14.11
09 14.11
10 14.11
11 14.11
12 14.11
13 14.11
14 14.11
15 14.11
16 14.11
17 14.11
18 14.11
19 14.11
20 14.11
21 14.11
22 14.11
23 14.11
00 15.11
01 15.11
02 15.11
03 15.11
04 15.11
05 15.11
06 15.11
07 15.11
08 15.11
09 15.11
10 15.11
11 15.11
12 15.11
13 15.11
14 15.11
15 15.11
16 15.11
17 15.11
18 15.11
19 15.11
20 15.11
21 15.11
22 15.11
23 15.11
00 16.11
01 16.11
02 16.11
03 16.11
04 16.11
05 16.11
06 16.11
07 16.11
08 16.11
09 16.11
10 16.11
11 16.11
12 16.11
13 16.11
14 16.11
15 16.11
16 16.11
17 16.11
19 16.11
20 16.11
21 16.11
22 16.11
23 16.11
00 17.11
01 17.11
02 17.11
04 17.11
05 17.11
06 17.11
07 17.11
08 17.11
09 17.11
10 17.11
11 17.11
12 17.11
13 17.11
14 17.11
15 17.11
16 17.11
17 17.11
19 17.11
20 17.11
21 17.11
22 17.11
23 17.11
00 18.11
01 18.11
02 18.11
03 18.11
04 18.11
05 18.11
06 18.11
07 18.11
08 18.11
09 18.11
10 18.11
11 18.11
12 18.11
13 18.11
14 18.11
15 18.11
16 18.11
17 18.11
19 18.11
20 18.11
21 18.11
22 18.11
23 18.11
00 19.11
01 19.11
02 19.11
03 19.11
04 19.11
05 19.11
06 19.11
07 19.11
08 19.11
09 19.11
10 19.11
11 19.11
12 19.11
13 19.11
14 19.11
15 19.11
16 19.11
17 19.11
19 19.11
20 19.11
21 19.11
22 19.11
23 19.11
00 20.11
01 20.11
02 20.11
03 20.11
04 20.11
05 20.11
06 20.11
07 20.11
08 20.11
09 20.11
10 20.11
11 20.11
12 20.11
13 20.11
14 20.11
15 20.11
16 20.11
17 20.11
18 20.11
19 20.11
20 20.11
21 20.11
22 20.11
23 20.11
00 21.11
01 21.11
02 21.11
Ветер
(напр.,м/с)
Видим. Явления Облачность Т
(С)
Тd
(С)
f
(%)
Тe
(С)
Тes
(С)
Комфортность P
(гПа)
Po
(гПа)
Тmin
(С)
Tmax
(С)
R
(мм)
R24
(мм)
S
(см)
Ю 6-8
{8}
50 км 10/0 300 м
[]
-2.0 -3.9 87 -9 -9 очень
холодно
1005.2 945.9
ЮВ 5-7
{8}
50 км 10/0 300 м
[]
-2.2 -3.9 88 -9 -9 очень
холодно
1005.3 946.0
ЮВ 6-8
{8}
30 км слаб. снег 9/0 300 м
[]
-2.5 -4.2 88 -10 -10 очень
холодно
1005.5 946.1 -4.5 -2.0 10
Ю 5-6
{7}
50 км снежные зёрна 10/0 300 м
[]
-2.5 -4.1 89 -9 -9 очень
холодно
1005.8 946.3
З 2-3
{6}
50 км 10/0 300 м
[]
-3.3 -5.1 87 -7 -7 холодно 1006.2 946.6
ЮВ 1-2
{3}
50 км {снег} 4/0 300 м
[]
-5.5 -6.9 90 -8 -8 очень
холодно
1007.2 947.0
ЮВ 1-2
{2}
50 км 8/0 300 м
[]
-7.6 -9.2 88 -10 -10 очень
холодно
1008.1 947.4
Ю 1-1
{2}
16 км 3/0 1000 м
[]
-9.9 -11.7 87 -12 -12 очень
холодно
1008.9 947.7
ЮЗ 1-1
{1}
40 км {снег} 10/10 <50 м
[]
-10.5 -11.5 92 -13 -13 очень
холодно
1009.5 948.1
ЮВ 1-1
{2}
50 км 9/9 100 м
[]
-9.3 -10.3 92 -12 -12 очень
холодно
1009.1 948.0
штиль 0-1
{1}
45 км 9/0
[]
-10.0 -11.0 92 -10 -10 очень
холодно
1009.7 948.4
Ю 1-2
{2}
50 км ясно -12.1 -13.7 88 -14 -14 очень
холодно
1010.5 948.7
В 1-1
{4}
45 км в посл. час снег 6/5 50 м
[]
-12.9 -14.1 91 -15 -15 очень
холодно
1011.0 949.0
С 1-2
{2}
1200 м слаб. ливневой снег ?/? -13.9 -14.8 93 -16 -16 очень
холодно
1011.7 949.4
СВ 1-1
{3}
600 м слаб. ливневой снег ?/? -13.6 -14.6 92 -16 -16 очень
холодно
1012.0 949.8 -14.0 -2.4
Ю 1-1
{2}
3200 м в посл. час снег ?/? -14.9 -16.4 88 -17 -17 очень
холодно
1013.0 950.3
СВ 1-1
{2}
21 км в посл. час зёрна 8/0 50 м
[]
-15.8 -17.4 87 -18 -18 очень
холодно
1013.5 950.6
СЗ 1-2
{2}
35 км в посл. час снег {ливн. осадки} 5/0 50 м
[]
-16.3 -18.0 87 -19 -19 очень
холодно
1014.1 951.1
ЮВ 1-2
{2}
50 км в посл. час снег 1/0 50 м
[]
-17.4 -19.2 86 -20 -20 очень
холодно
1014.8 951.4
ЮВ 1-1
{2}
50 км 10/0 600 м
[]
-16.9 -18.6 87 -20 -20 очень
холодно
1015.1 951.9
ЮВ 1-2
{2}
45 км {ливн. осадки, снег} 9/0 600 м
[]
-15.9 -17.3 89 -19 -19 очень
холодно
1015.2 952.2
ЮВ 1-1
{2}
50 км 9/0 600 м
[]
-15.0 -16.6 88 -18 -18 очень
холодно
1015.7 952.8
Ю 1-1
{3}
50 км 10/0 600 м
[]
-14.3 -15.8 88 -17 -17 очень
холодно
1015.9 953.3
В 1-2
{2}
50 км 10/0 600 м
[]
-12.8 -14.2 89 -15 -15 очень
холодно
1015.7 953.4
Ю 1-2
{2}
50 км 9/0 600 м
[]
-11.6 -12.8 91 -14 -14 очень
холодно
1015.8 953.8
ЮВ 1-2
{2}
50 км 10/0 600 м
[]
-10.9 -11.9 92 -13 -13 очень
холодно
1016.0 954.1
ЮВ 2-2
{2}
50 км 10/0 600 м
[]
-10.0 -11.0 92 -15 -15 очень
холодно
1016.2 954.5 -17.4 -10.0 10
ЮВ 1-1
{3}
50 км 8/8 600 м
[]
-10.5 -11.9 89 -13 -13 очень
холодно
1017.0 955.2
Ю 1-2
{2}
50 км 9/0 1000 м
[]
-9.8 -11.0 91 -12 -12 очень
холодно
1017.5 955.7
ЮВ 2-3
{3}
50 км 10/0 600 м
[]
-8.7 -9.7 92 -13 -13 очень
холодно
1017.8 956.3
Ю 1-2
{3}
50 км 9/0 1000 м
[]
-8.6 -9.6 92 -11 -11 очень
холодно
1018.2 956.7
ЮЗ 1-1
{3}
50 км 10/0 1000 м
[]
-7.9 -8.7 94 -10 -10 очень
холодно
1018.8 957.5
Ю 1-2
{2}
40 км 10/10 1000 м
[]
-7.5 -8.5 93 -10 -10 очень
холодно
1019.1 957.8
Ю 1-2
{2}
50 км в посл. час снег 9/4 1000 м
[]
-7.9 -9.0 92 -10 -10 очень
холодно
1019.6 958.2
Ю 2-3
{3}
50 км 4/0
[]
-9.4 -10.5 92 -14 -14 очень
холодно
1020.3 958.5
ЮЗ 1-1
{3}
50 км {ливн. осадки, снег} ясно -10.9 -11.9 92 -13 -13 очень
холодно
1021.3 959.1
ЮЗ 1-1
{3}
50 км ясно -10.2 -11.2 92 -13 -13 очень
холодно
1021.3 959.2
Ю 1-2
{2}
50 км ясно -12.2 -13.7 89 -14 -14 очень
холодно
1022.3 959.7
В 1-2
{3}
40 км {ливн. осадки, снег} ясно -13.9 -16.0 84 -16 -16 очень
холодно
1022.9 959.9 -13.9 -7.2
В 1-1
{3}
50 км 1/0 <50 м
[]
-13.3 -14.3 92 -16 -16 очень
холодно
1023.0 960.1
С 1-1
{2}
50 км 1/0 50 м
[]
-14.4 -15.7 90 -17 -17 очень
холодно
1023.6 960.5
ЮВ 1-3
{5}
50 км в посл. час снег {ливн. осадки} ясно -14.3 -15.4 91 -17 -17 очень
холодно
1023.7 960.5
СЗ 1-1
{5}
35 км ясно -15.6 -17.4 86 -18 -18 очень
холодно
1024.1 960.6
СВ 1-1
{2}
50 км ясно -17.0 -18.7 87 -20 -20 очень
холодно
1024.7 960.8
ЮВ 1-1
{1}
50 км {ливн. осадки, снег} ясно -17.2 -19.3 84 -20 -20 очень
холодно
1024.8 960.9
ЮВ 1-1
{2}
50 км ясно -17.7 -19.6 85 -21 -21 очень
холодно
1025.2 961.2
ЮВ 1-1
{3}
50 км ясно -18.4 -20.6 83 -21 -21 очень
холодно
1025.3 961.0
ЮВ 1-1
{2}
50 км ясно -18.3 -20.2 85 -21 -21 очень
холодно
1025.5 961.3
С 1-1
{2}
50 км ясно -19.3 -21.7 81 -22 -22 очень
холодно
1025.7 961.3
штиль 0-1
{2}
50 км ясно -19.8 -21.9 83 -20 -20 очень
холодно
1025.9 961.3
ЮВ 2-3
{3}
50 км ясно -20.0 -22.0 84 -26 -26 очень
холодно
1026.3 961.6 -20.0 -11.5 10
ЮВ 1-2
{2}
50 км ясно -19.7 -22.0 82 -23 -23 очень
холодно
1026.4 961.8
Ю 1-1
{1}
50 км ясно -19.6 -21.5 85 -23 -23 очень
холодно
1026.5 961.9
ЮВ 1-2
{2}
50 км ясно -20.2 -22.2 84 -23 -23 очень
холодно
1027.0 962.2
СЗ 1-1
{2}
50 км ясно -19.3 -21.2 85 -22 -22 очень
холодно
1026.8 962.3
З 1-1
{2}
50 км ясно -17.8 -19.6 86 -21 -21 очень
холодно
1026.5 962.3
ЮЗ 1-2
{2}
50 км 1/0 100 м
[]
-18.6 -20.5 85 -21 -21 очень
холодно
1026.6 962.2
СЗ 1-1
{2}
5000 м слаб. ливневой снег 9/0 50 м
[]
-18.1 -19.9 86 -21 -21 очень
холодно
1026.5 962.3
З 1-2
{2}
6000 м слаб. ливневой снег 9/0 100 м
[]
-17.2 -18.9 87 -20 -20 очень
холодно
1026.3 962.3
В 1-2
{3}
40 км в посл. час переохл. осадки (гололёд) 9/0 100 м
[]
-17.8 -19.7 85 -21 -21 очень
холодно
1026.6 962.4
Ю 2-4
{4}
10 км слаб. ливневой снег 9/0 100 м
[]
-16.3 -18.0 87 -22 -22 очень
холодно
1026.2 962.4
ЮВ 4-7
{7}
17 км слаб. снег 10/0 100 м
[]
-14.0 -15.3 90 -22 -22 очень
холодно
1025.9 962.7
ЮВ 3-4
{6}
4300 м слаб. ливневой снег 10/0 50 м
[]
-14.0 -15.4 89 -20 -20 очень
холодно
1025.9 962.7
ЮВ 4-5
{7}
12 км слаб. снег 10/0 100 м
[]
-15.5 -17.2 87 -23 -23 очень
холодно
1026.5 962.8
ЮВ 4-5
{6}
45 км слаб. ливневой снег 10/0 100 м
[]
-14.6 -16.2 88 -22 -22 очень
холодно
1026.3 962.9
ЮВ 4-6
{7}
30 км слаб. ливневой снег 10/0 100 м
[]
-15.1 -16.7 88 -23 -23 очень
холодно
1026.5 962.9
ЮВ 4-6
{7}
20 км слаб. ливневой снег 10/0 100 м
[]
-13.9 -15.3 89 -21 -21 очень
холодно
1026.1 962.9
ЮВ 3-5
{6}
6000 м слаб. снег 10/10 100 м
[]
-13.3 -14.6 90 -20 -20 очень
холодно
1025.5 962.4
Ю 8-9
{9}
4500 м слаб. ливневой снег 10/0 100 м
[]
-11.9 -13.1 91 -22 -22 очень
холодно
1025.2 962.5
Ю 4-8
{8}
45 км в посл. час снег 10/0 200 м
[]
-9.5 -10.2 95 -17 -17 очень
холодно
1024.5 962.5
СЗ 1-1
{2}
5000 м дымка 10/0 100 м
[]
-9.4 -10.4 92 -12 -12 очень
холодно
1023.9 961.9
ЮВ 3-7
{7}
4900 м дымка 10/0 100 м
[]
-9.0 -10.0 92 -15 -15 очень
холодно
1023.3 961.4
Ю 5-9
{9}
20 км {ливн. осадки, снег} 10/0 100 м
[]
-6.9 -7.6 95 -14 -14 очень
холодно
1022.7 961.3 -15.6 -6.9 9
Ю 5-8
{9}
50 км 10/0 100 м
[]
-6.8 -7.6 94 -14 -14 очень
холодно
1022.6 961.3
Ю 6-8
{9}
50 км в посл. час снег 10/0 100 м
[]
-6.4 -7.2 94 -15 -15 очень
холодно
1022.5 961.2
Ю 7-9
{9}
21 км {ливн. осадки, снег} 10/0 200 м
[]
-6.7 -7.4 95 -15 -15 очень
холодно
1022.7 961.4
ЮЗ 4-5
{8}
35 км слаб. ливневой снег 10/0 100 м
[]
-7.0 -7.9 93 -14 -14 очень
холодно
1022.7 961.3
Ю 6-7
{7}
2100 м слаб. ливневой снег 10/0 100 м
[]
-6.6 -7.3 95 -15 -15 очень
холодно
1022.3 961.0 0.1
Ю 5-7
{7}
5000 м слаб. снег 10/0 200 м
[]
-6.4 -7.1 95 -14 -14 очень
холодно
1022.1 960.8 0.2
ЮВ 5-7
{8}
20 км слаб. снег 10/10 200 м
[]
-6.4 -7.2 94 -14 -14 очень
холодно
1021.7 960.5 0.1
ЮВ 3-5
{7}
50 км в посл. час зёрна 10/0 200 м
[]
-6.4 -7.1 95 -12 -12 очень
холодно
1021.5 960.3
ЮВ 3-5
{6}
50 км {снег} 10/0 200 м
[]
-6.5 -7.2 95 -12 -12 очень
холодно
1021.4 960.2
Ю 3-5
{6}
50 км 10/0 200 м
[]
-6.3 -7.0 95 -12 -12 очень
холодно
1021.1 960.0
Ю 5-7
{9}
50 км 9/8 200 м
[]
-6.3 -7.0 95 -14 -14 очень
холодно
1021.2 960.0
Ю 6-8
{9}
50 км 10/0 300 м
[]
-6.9 -7.6 95 -15 -15 очень
холодно
1021.8 960.5
Ю 6-7
{8}
50 км 10/0 200 м
[]
-7.2 -8.0 94 -15 -15 очень
холодно
1022.1 960.7
Ю 4-6
{7}
50 км 10/0 200 м
[]
-7.6 -8.5 93 -14 -14 очень
холодно
1022.3 960.7
Ю 2-3
{6}
50 км 9/8 100 м
[]
-8.9 -9.8 93 -13 -13 очень
холодно
1022.7 960.9
С 1-2
{3}
50 км 3/0 300 м
[]
-10.3 -11.4 92 -13 -13 очень
холодно
1023.2 961.0
СЗ 1-1
{3}
50 км 8/8 300 м
[]
-11.2 -12.4 91 -13 -13 очень
холодно
1023.7 961.3
ЮВ 1-3
{3}
50 км 9/0 300 м
[]
-11.1 -12.3 91 -13 -13 очень
холодно
1023.7 961.3
С 1-1
{3}
50 км 10/0 300 м
[]
-10.9 -12.1 91 -13 -13 очень
холодно
1023.8 961.4
штиль 0-1
{2}
50 км 10/0 300 м
[]
-11.2 -12.5 90 -11 -11 очень
холодно
1024.3 961.8
С 1-2
{2}
50 км 4/0
[]
-12.2 -13.6 89 -14 -14 очень
холодно
1024.7 962.0
-2
{3}
50 км ясно -12.3 -13.7 89 1024.7 961.9
С 1-2
{3}
50 км ясно -12.5 -13.8 90 -15 -15 очень
холодно
1025.2 962.4 -12.6 -6.6 9
Ю 2-4
{5}
50 км ясно -11.4 -12.8 89 -16 -16 очень
холодно
1025.6 963.0
С 2-3
{3}
50 км 10/10
[]
-11.5 -12.7 91 -16 -16 очень
холодно
1026.3 963.6
Ю 3-5
{7}
50 км 9/0
[]
-9.5 -10.6 92 -15 -15 очень
холодно
1026.0 963.8
ЮВ 1-3
{5}
50 км 9/0 300 м
[]
-9.2 -10.3 92 -12 -12 очень
холодно
1026.2 964.0
Ю 4-5
{7}
45 км 10/0 300 м
[]
-7.9 -8.9 93 -15 -15 очень
холодно
1026.1 964.3
В 1-2
{6}
50 км 10/0 300 м
[]
-8.2 -9.3 92 -11 -11 очень
холодно
1026.7 964.8
Ю 5-7
{7}
45 км 10/0 300 м
[]
-7.3 -8.4 92 -15 -15 очень
холодно
1026.2 964.5
Ю 3-5
{7}
50 км 10/0 300 м
[]
-7.4 -8.3 93 -13 -13 очень
холодно
1026.4 964.7
Ю 4-5
{7}
50 км в посл. час переохл. осадки (гололёд) 10/0 300 м
[]
-7.1 -8.1 93 -14 -14 очень
холодно
1026.5 964.8
Ю 4-6
{9}
50 км в посл. час снег 10/0 200 м
[]
-7.1 -8.2 92 -14 -14 очень
холодно
1026.9 965.2
ЮВ 3-5
{6}
30 км 10/0 100 м
[]
-7.2 -8.0 94 -13 -13 очень
холодно
1027.0 965.3
Ю 4-6
{6}
30 км 10/0 100 м
[]
-7.4 -8.3 93 -14 -14 очень
холодно
1027.1 965.4
Ю 4-6
{6}
35 км 10/0 100 м
[]
-7.5 -8.4 93 -14 -14 очень
холодно
1027.6 965.8
Ю 6-8
{8}
45 км 10/0 200 м
[]
-7.6 -8.7 92 -16 -16 очень
холодно
1027.6 965.8
Ю 5-6
{7}
45 км снежные кристаллы 10/0 300 м
[]
-7.2 -8.3 92 -15 -15 очень
холодно
1027.5 965.8
Ю 5-6
{8}
30 км слаб. ливневой снег 10/10 300 м
[]
-6.6 -7.7 92 -14 -14 очень
холодно
1027.1 965.6
Ю 6-7
{8}
50 км снежные кристаллы 10/0 300 м
[]
-6.7 -7.9 91 -15 -15 очень
холодно
1027.0 965.4
Ю 5-9
{11}
50 км в посл. час снег 10/0 300 м
[]
-6.1 -7.5 90 -14 -14 очень
холодно
1027.1 965.7
Ю 5-8
{8}
30 км 10/0 300 м
[]
-6.1 -7.4 90 -14 -14 очень
холодно
1026.9 965.4
Ю 7-9
{10}
3300 м слаб. снег 10/10 300 м
[]
-5.9 -7.2 91 -14 -14 очень
холодно
1026.6 965.2 0.1
Ю 5-8
{8}
2000 м слаб. снег 10/0 300 м
[]
-5.8 -7.2 90 -13 -13 очень
холодно
1026.5 965.1 0.3
ЮВ 6-8
{9}
1300 м слаб. снег 10/0 600 м
[]
-5.6 -7.2 88 -14 -14 очень
холодно
1026.3 965.0 0.3
ЮВ 6-9
{10}
2100 м слаб. снег 10/10 300 м
[]
-5.2 -6.8 88 -13 -13 очень
холодно
1025.7 964.5 -7.7 -5.2 0.3 11
Ю 6-7
{8}
1300 м слаб. снег 10/0 600 м
[]
-4.8 -6.1 91 -13 -13 очень
холодно
1026.2 965.1 0.4
Ю 4-7
{7}
2600 м слаб. снег 10/0 200 м
[]
-4.7 -6.1 90 -11 -11 очень
холодно
1026.6 965.5 0.5
Ю 5-6
{8}
1800 м слаб. ливневой снег 10/0 300 м
[]
-4.6 -6.2 89 -12 -12 очень
холодно
1026.9 965.8 0.2
Ю 5-7
{8}
30 км слаб. снег 10/0 300 м
[]
-4.6 -6.0 90 -12 -12 очень
холодно
1026.6 965.5 0.1
СВ 1-1
{8}
3300 м ливневой дождь 10/0 300 м
[]
-5.0 -6.1 92 -7 -7 холодно 1026.5 965.3
штиль 0-1
{1}
23 км слаб. снег 10/0 200 м
[]
-5.1 -6.0 93 -6 -6 холодно 1026.2 965.0
С 1-2
{3}
5000 м снежные зёрна 10/0 100 м
[]
-4.9 -5.7 94 -7 -7 холодно 1025.8 964.7
ЮЗ 1-2
{3}
2500 м снежные зёрна 10/0 200 м
[]
-4.4 -5.0 96 -7 -7 холодно 1025.5 964.5
Ю 8-9
{9}
10 км в посл. час снег 10/0 200 м
[]
-2.5 -3.1 96 -11 -11 очень
холодно
1024.4 963.9
Ю 6-8
{8}
40 км 10/0 100 м
[]
-1.8 -2.2 97 -9 -9 очень
холодно
1024.0 963.7
Ю 6-8
{8}
40 км 10/0 100 м
[]
-1.8 -2.3 96 -9 -9 очень
холодно
1023.9 963.5
Ю 8-10
{10}
50 км 10/0 300 м
[]
-0.9 -2.0 92 -9 -9 очень
холодно
1022.8 962.7
Ю 6-9
{11}
50 км 10/0 200 м
[]
-0.9 -2.0 92 -8 -8 очень
холодно
1022.9 962.8
Ю 7-11
{11}
50 км 10/0 200 м
[]
-0.9 -1.9 93 -8 -8 очень
холодно
1022.9 962.8
ЮВ 6-9
{11}
50 км в посл. час зёрна 10/0 200 м
[]
-1.0 -2.0 93 -8 -8 очень
холодно
1022.8 962.7
ЮВ 7-10
{11}
9000 м 10/0 200 м
[]
-0.9 -2.0 92 -8 -8 очень
холодно
1022.6 962.5
ЮВ 8-11
{12}
45 км {ливн. осадки, снег} 10/0 200 м
[]
-0.8 -2.0 92 -9 -9 очень
холодно
1022.1 962.1
ЮВ 5-8
{10}
50 км 10/0 200 м
[]
-1.0 -1.8 94 -8 -8 очень
холодно
1022.3 962.2
Ю 7-10
{10}
30 км 10/0 200 м
[]
-0.9 -1.7 94 -8 -8 очень
холодно
1021.9 961.9
ЮВ 4-7
{10}
50 км 10/0 200 м
[]
-0.8 -1.7 94 -7 -7 холодно 1021.9 961.9
ЮВ 8-12
{12}
40 км 10/0 200 м
[]
-0.8 -1.6 94 -9 -9 очень
холодно
1021.0 961.0
ЮВ 7-10
{12}
7000 м слаб. ливневой снег 10/0 300 м
[]
-0.6 -1.6 93 -8 -8 очень
холодно
1021.1 961.2
Ю 5-7
{10}
19 км в посл. час снег {ливн. осадки} 10/0 200 м
[]
-0.4 -1.5 92 -7 -7 холодно 1021.1 961.2 -1.3 -0.4 <0.5
Ю 5-7
{8}
50 км 10/0 300 м
[]
-0.5 -1.6 92 -7 -7 холодно 1021.3 961.4
Ю 5-7
{8}
30 км снежные зёрна 10/10 200 м
[]
-0.4 -1.6 92 -7 -7 холодно 1021.3 961.4
Ю 5-6
{7}
50 км в посл. час дождь со снегом {ливн. осадки} 10/10 300 м
[]
-0.5 -1.6 92 -7 -7 холодно 1021.0 961.1
Ю 6-7
{8}
50 км 10/0 300 м
[]
-0.2 -1.5 91 -7 -7 холодно 1020.7 960.9
ЮВ 5-7
{7}
23 км осадки 10/0 200 м
[]
+0.1 -1.0 92 -6 -6 холодно 1020.3 960.5
Ю 5-7
{7}
2500 м слаб. снег 10/0 300 м
[]
-0.2 -0.7 96 -7 -7 холодно 1020.1 960.3 0.3
ЮВ 4-6
{8}
35 км в посл. час снег 10/0 300 м
[]
0.0 -1.2 92 -6 -6 холодно 1019.9 960.2
ЮВ 4-6
{7}
40 км 10/0 300 м
[]
0.0 -1.3 91 -6 -6 холодно 1020.3 960.6
ЮВ 5-7
{8}
50 км слаб. снег {туман} 10/9 300 м
[]
+0.1 -1.4 90 -6 -6 холодно 1020.2 960.5
ЮВ 5-7
{9}
50 км 10/0 300 м
[]
-0.1 -1.7 89 -6 -6 холодно 1020.2 960.5
ЮВ 4-6
{8}
50 км 6/6 300 м
[]
-0.3 -2.3 86 -6 -6 холодно 1020.8 961.0
ЮВ 4-5
{6}
50 км {ливн. осадки, снег} 3/0 1000 м
[]
-1.4 -3.0 89 -7 -7 холодно 1021.4 961.3 -1.4 +0.2
СЗ 1-2
{5}
50 км ясно -4.4 -5.2 94 -7 -7 холодно 1022.3 961.5
С 1-1
{2}
50 км ясно -6.1 -6.9 94 -9 -9 очень
холодно
1023.4 962.2
С 2-3
{3}
50 км 5/0
[]
-7.1 -8.0 93 -12 -12 очень
холодно
1024.3 962.8
С 1-3
{3}
50 км 4/1
[]
-9.2 -9.9 95 -12 -12 очень
холодно
1025.2 963.2
З 1-2
{4}
50 км 8/0
[]
-9.1 -9.6 96 -12 -12 очень
холодно
1025.5 963.5
ЮВ 7-10
{10}
50 км 8/0
[]
-1.2 -4.3 79 -8 -8 очень
холодно
1023.4 963.2
Ю 5-7
{9}
50 км ясно -0.4 -5.1 71 -6 -6 холодно 1023.7 963.7
ЮВ 6-8
{8}
50 км ясно -0.4 -5.2 70 -7 -7 холодно 1023.8 963.8
Местоположение метеостанции Килписйарви (Финляндия): широта 69.05 долгота 20.79 высота над уровнем моря 480 м.
В архиве по умолчанию представлена погода в Килписйарви за последнюю неделю. Архивные данные за месяц целиком и за предыдущие месяцы, начиная с января 2011 года, Вы можете получить, выбрав интересующий диапазон дат из раскрывающегося списка и нажав кнопку "Найти!".
*Определитесь, кто Вы:
Внимание! Время в таблицах - всемирное. Для получения местного времени необходимо прибавить поправку, которая равна 1 ч.
Смотрите также архив погоды в соседних городах и на ближайших метеорологических станциях:
Партнеры нашего сайта:      
Пояснения к столбцам:
  • Ветер - указаны скорость ветра в м/с - средняя за 10 мин, порывы в срок и между сроками (в фигурных скобках) и направление, откуда дует ветер: С - северный,
  • СВ - северо-восточный, В - восточный, ЮВ - юго-восточный, Ю - южный, ЮЗ - юго-западный, З - западный, СЗ - северо-западный.
  • Видимость - горизонтальная дальность видимости в метрах или километрах. При видимости от 1 до 10 км при отсутствии осадков обычно наблюдается дымка, при ухудшении видимости до 1 км и менее - туман. В сухую погоду видимость может ухудшаться дымом, пылью или мглою.
  • Явления - указаны атмосферные явления, наблюдавшиеся в срок или в последний час перед сроком; фигурными скобками обозначены явления, наблюдавшиеся между сроками (за 1-3 часа до срока); квадратными скобками обозначены град или гололедные отложения с указанием их диаметра в мм.
  • Облачность - указаны через наклонную черту общая и нижняя облачность в баллах и высота нижней границы облаков в метрах; квадратными скобками обозначены формы облаков: Ci - перистые, Cs - перисто-слоистые, Cc - перисто-кучевые, Ac - высококучевые, As - высокослоистые, Sc - слоисто-кучевые, Ns - слоисто-дождевые, Cu - кучевые, Cb - кучево-дождевые. Подробнее классификацию облаков см. в Атласе облаков (PDF).
  • T - Температура воздуха - температура, измеренная на высоте 2 м над землей.
  • Td - Температура точки росы - температура, при понижении до которой содержащийся в воздухе водяной пар достигнет насыщения.
  • f - Относительная влажность воздуха - влажноcть воздуха, измеренная на высоте 2 м над землей.
  • Te - Эффективная температура - температура, которую ощущает одетый по сезону человек в тени. Характеристика душности погоды. При расчете учитывается влияние влажности воздуха и скорости ветра на теплоощущения человека.
  • Tes - Эффективная температура на солнце - температура, которую ощущает человек, с поправкой на солнечный нагрев. Характеристика знойности погоды. Зависит от высоты солнца над горизонтом, облачности и скорости ветра. Ночью, в пасмурную погоду, а также при ветре 12 м/с и более поправка равна нулю.
  • P - Атмосферное давление - приведенное к уровню моря атмосферное давление.
  • Po - Атмосферное давление - измеренное на уровне метеостанции атмосферное давление.
  • Tmin - Минимальная температура - минимум температуры воздуха на высоте 2 м над землей.
  • Tmax - Максимальная температура - максимум температуры воздуха на высоте 2 м над землей.
  • R - Количество осадков - Количество выпавших осадков за период времени, мм. При наведении курсора мыши на число - период времени, за который выпало указанное количество осадков.
  • R24 - Количество осадков - Количество выпавших осадков за 24 часа, мм.
  • S - Снежный покров - Высота снежного покрова, см. При наведении курсора мыши на число - состояние снежного покрова и степень покрытия местности в баллах.